Temp
3 3 3 3 3 3 4 4 4 4 4 4 4 4 4 4 4 4 4 4 4 -2 0 3 3 3 2 1 0 2 1 1 1 0 -2 -1 2 2 5 5 5 5 4 -1 0 2 5 6 7 6 5 6 6 6
3 3 3 3 3 4 3 4 4 4 3 3 3 4 3 3 3 4 4 4 4 3 1 4 4 5 5 4 2 1 3 -0 -1 -2 -4 3 2 -0 1 2 5 4 4 5 5 4 5 5 5 7 6 6 5 5
3 3 3 3 3 3 3 4 3 3 3 3 3 3 3 2 3 3 3 3 3 2 -1 1 3 6 6 5 6 2 1 3 0 1 -2 0 3 0 1 2 2 6 6 4 4 5 5 5 6 7 6 5 5 3
3 3 3 3 3 3 3 3 3 3 3 3 2 2 2 2 2 2 3 3 3 0 0 1 5 6 6 6 5 6 5 4 2 1 1 0 2 3 4 4 4 3 5 5 4 5 5 6 5 6 5 4 3 3
3 3 3 3 3 3 3 3 2 2 2 2 2 2 1 2 2 2 3 3 3 2 -2 -1 3 6 7 7 6 6 5 3 1 1 0 2 1 2 2 3 4 5 6 4 3 6 5 6 6 6 5 3 3 3
3 3 3 3 3 2 2 2 2 2 2 2 1 1 1 2 2 2 -2 4 4 4 -1 -0 2 3 6 7 6 5 4 1 1 2 2 1 2 4 4 4 6 6 6 5 6 7 5 5 5 5 4 3 3 2
3 3 3 2 2 2 2 2 2 2 2 1 1 1 1 1 2 2 1 3 4 4 -1 0 1 3 6 6 4 3 4 2 2 2 1 2 2 3 3 4 6 7 7 7 6 7 6 5 4 4 3 3 3 2
3 2 2 2 2 2 2 2 2 1 1 1 2 1 1 1 2 3 5 4 4 4 1 -0 1 2 6 2 3 1 2 1 1 2 1 2 2 2 3 5 6 7 7 6 5 5 5 4 3 3 3 2 2 1
2 2 2 2 2 2 2 2 2 1 2 2 2 2 2 2 2 4 4 5 4 3 -2 1 1 -0 3 3 -0 1 1 1 1 2 2 2 3 4 5 5 6 6 6 6 6 6 4 4 3 3 3 2 2 1
2 2 2 2 2 2 2 1 1 1 2 2 2 2 -4 3 4 4 3 -2 1 -1 -1 2 -0 0 3 -0 0 1 -2 1 2 3 2 2 4 5 4 4 4 5 6 5 6 6 6 5 3 3 3 1 1 0
2 2 2 2 2 2 2 2 1 2 2 2 0 -2 3 3 4 -0 -2 2 2 1 0 1 0 1 1 2 2 -0 -1 0 1 3 4 4 2 3 3 2 4 4 5 4 4 4 3 4 2 2 1 1 0 -0
3 2 2 2 2 2 2 2 1 1 1 1 1 2 3 0 -1 2 1 1 1 2 1 1 2 1 2 1 1 0 4 2 4 1 0 -0 2 3 3 4 3 3 3 3 3 3 3 3 2 1 1 1 1 0
2 2 2 2 2 1 2 1 0 1 1 1 1 1 -1 -2 1 2 -0 2 -1 2 1 2 2 2 2 1 0 2 2 1 2 -2 1 1 1 3 3 2 2 2 2 2 2 2 1 1 2 1 0 1 1 0
2 2 1 1 2 1 1 0 -0 0 1 1 -0 -3 -2 -3 -0 1 2 2 2 1 2 2 -0 1 -1 1 -1 2 3 3 1 -0 3 1 2 3 2 2 2 2 1 2 1 1 0 -1 -1 0 0 0 -1 -2
1 1 1 1 1 0 -0 -0 -0 -0 1 1 1 -0 -0 1 0 0 -0 1 2 1 1 0 1 2 0 1 2 2 2 0 1 1 -0 2 3 2 2 2 1 1 -1 -0 1 -0 -1 -1 -2 -1 -0 -0 -1 -1
1 1 0 1 1 0 -0 -0 -0 -0 -0 0 1 1 0 -0 -2 -3 -1 0 1 0 -1 1 2 -0 2 2 3 1 4 2 0 1 0 -0 3 2 2 1 1 1 1 0 0 -0 -1 -1 -2 -2 -1 -2 -2 -3
1 -0 0 0 1 0 -0 -0 -0 -1 -1 1 0 -2 -1 1 -0 -0 0 1 0 1 -0 1 -0 2 -0 -0 -0 2 1 0 1 0 -0 1 2 2 1 1 -0 0 0 0 -0 -1 -1 -1 -2 -2 -3 -4 -2 -2
-0 1 1 0 0 -0 -0 -0 -1 -0 1 1 -1 -2 -2 -1 -0 -1 1 0 2 2 1 4 3 3 1 4 1 0 -1 -2 -1 0 1 1 2 1 1 0 1 1 0 -0 -1 -1 -2 -2 -3 -4 -4 -3 -2 -3
0 1 1 0 -0 0 -1 -1 -1 0 1 0 -0 -1 -0 -0 0 1 1 0 1 1 2 1 4 3 4 2 1 -0 -1 -1 1 1 0 1 2 2 1 1 1 0 -1 -1 -2 -2 -3 -3 -3 -3 -4 -4 -4 -4
-0 1 1 -0 1 0 -0 -0 0 -0 1 1 1 1 1 1 1 -0 1 0 1 2 3 3 2 2 1 1 -0 0 -1 -1 -2 -0 0 -0 1 1 0 0 -0 -1 -2 -2 -2 -3 -3 -4 -3 -4 -4 -4 -4 -4
-1 -0 -0 -0 -0 -1 -0 -0 -0 -1 0 0 1 1 1 1 0 -0 -0 -1 -1 2 1 2 1 -0 -0 1 2 2 -0 -0 0 1 2 1 1 0 -0 0 -0 -2 -3 -3 -4 -4 -3 -4 -4 -4 -4 -4 -4 -5
-0 -0 -1 -1 -1 -1 -2 -1 -0 -0 -0 1 1 1 1 -1 -1 -0 -1 -1 0 2 0 -0 -0 -1 -1 1 1 2 3 3 2 1 1 1 0 -1 -2 -2 -2 -3 -4 -3 -3 -4 -4 -4 -4 -4 -4 -4 -5 -5
-1 -1 -1 -1 -2 -3 -2 -1 -0 0 -1 1 1 1 0 -0 0 -1 -1 0 0 -1 -1 1 2 3 1 3 2 3 3 2 -1 -1 0 0 1 1 -1 -3 -3 -4 -5 -4 -3 -3 -4 -4 -4 -4 -4 -5 -6 -6
-0 -1 -2 -2 -2 -3 -2 -2 -0 1 0 0 1 1 1 -0 0 -0 1 1 -1 -3 -2 1 -2 -2 -1 1 -3 -0 2 2 0 0 1 -1 -2 -3 -2 -3 -3 -2 -2 -2 -3 -4 -4 -4 -4 -4 -5 -5 -6 -7
-1 -1 -1 -3 -2 -3 -3 -2 0 1 -3 -1 1 -2 -0 1 -1 -1 1 -0 -3 -4 -4 -3 -3 -2 -2 -4 -5 -2 2 1 -3 -3 -1 -0 -2 -4 -4 -3 -2 -1 -2 -3 -4 -4 -4 -4 -4 -5 -5 -6 -6 -7
-1 -2 -1 -2 -2 -3 -2 -3 -2 -2 -2 -3 -2 0 -1 -3 -2 -1 -0 -3 -5 -4 -5 -3 -2 -3 -3 -3 -4 -5 1 2 0 -3 -1 -1 -1 -3 -5 -5 -6 -5 -3 -3 -3 -4 -4 -5 -5 -5 -6 -6 -7 -8
-1 -2 -1 -1 0 0 -3 -2 0 -2 -4 -3 -3 -4 -2 -1 -3 -2 -4 -5 -3 -1 1 2 1 -2 -3 -2 1 2 1 1 1 1 2 1 0 0 -0 -4 -5 -2 -2 -3 -3 -3 -4 -5 -5 -6 -6 -7 -7 -8
-2 -2 -2 -2 -4 -1 -5 -5 -5 -3 -3 -1 -1 -2 -2 -2 -2 -3 -3 1 2 2 2 2 1 1 1 2 2 1 -0 -0 -0 -0 -0 -1 -1 -1 -1 -1 -1 -1 -1 -2 -3 -4 -4 -5 -5 -6 -7 -7 -7 -8
-2 -2 -3 -7 -7 -5 -4 -4 -2 -2 -0 0 -1 -2 -2 -1 -4 -4 0 1 1 1 0 -0 1 1 1 0 0 -1 -1 -1 -4 -8 -8 -10 -12 -3 -2 -2 -2 -2 -2 -3 -4 -4 -5 -5 -6 -6 -7 -7 -8 -9
-3 -1 -6 -8 -5 -3 -4 -3 -3 -3 -1 -1 -2 -2 -4 -5 -2 -1 0 1 0 -1 1 -0 -0 -1 -2 -4 -3 -2 -2 -2 -1 -3 -8 -9 -6 -2 -2 -3 -3 -3 -4 -4 -5 -6 -6 -7 -7 -7 -8 -9 -9 -10
-3 -6 -7 -6 -6 -7 -5 -7 -6 -6 -6 -5 -8 -4 -3 -7 -6 -5 -2 -2 -2 -2 -2 -3 -3 -3 -3 -4 -7 -12 -7 -2 -2 -2 -2 -2 -2 -2 -2 -3 -4 -4 -5 -5 -6 -7 -7 -7 -8 -8 -9 -10 -10 -10
-7 -4 -5 -6 -5 -7 -8 -4 -4 -3 -6 -7 -7 -9 -9 -8 -4 -9 -5 -4 -3 -4 -5 -5 -5 -5 -5 -5 -5 -5 -5 -5 -4 -4 -3 -3 -3 -4 -3 -3 -5 -5 -6 -6 -6 -7 -8 -8 -8 -8 -9 -10 -11 -11
-9 -7 -5 -5 -1 -1 -2 -4 -3 -4 -6 -7 -8 -10 -8 -4 -2 -8 -5 -5 -5 -5 -5 -5 -6 -6 -6 -6 -6 -6 -6 -5 -4 -4 -4 -4 -4 -4 -5 -5 -5 -6 -6 -6 -7 -7 -8 -8 -8 -9 -9 -10 -11 -11
Height
741 737 753 754 754 753 765 768 763 768 771 775 772 770 775 780 789 790 789 790 794 803 796 791 790 792 793 796 800 788 792 790 788 796 809 805 787 778 763 761 756 756 761 787 780 771 752 742 732 736 745 738 736 736
742 744 759 752 754 753 770 758 770 770 774 775 774 771 775 784 788 788 789 791 794 795 792 787 785 783 783 782 787 788 789 795 797 805 816 789 789 793 787 786 757 767 762 756 758 760 754 748 747 742 742 741 741 739
741 749 758 745 758 767 760 758 772 774 777 774 772 774 781 786 786 787 789 791 792 793 789 785 779 778 777 776 779 788 788 784 790 787 799 796 787 792 791 782 774 754 752 759 761 754 752 748 743 740 741 743 742 741
742 753 747 753 769 762 756 762 775 777 776 772 774 779 784 785 785 786 788 789 791 791 795 785 775 773 773 773 774 776 777 779 782 786 791 794 788 778 775 771 769 765 756 755 758 753 751 745 744 743 745 744 744 743
744 748 751 762 764 757 761 768 778 776 775 775 779 782 783 783 784 786 786 786 787 790 799 788 775 769 769 770 771 773 776 778 783 789 792 787 782 778 773 772 765 757 754 762 763 747 747 744 742 744 746 746 746 746
746 750 755 757 762 763 766 774 775 777 777 779 781 781 780 781 783 784 786 783 783 785 790 793 777 770 767 767 768 770 772 776 779 782 784 780 772 771 772 769 754 751 748 749 748 742 745 745 746 746 748 748 748 747
746 749 753 758 763 766 770 774 776 778 779 780 779 778 779 781 781 782 783 780 781 784 789 791 786 770 766 765 767 769 770 773 776 778 780 776 771 769 771 764 750 748 746 744 744 742 744 745 747 747 747 748 747 747
745 750 755 761 764 768 772 774 776 778 779 778 777 777 778 779 780 779 778 779 780 782 786 795 785 777 766 771 772 770 773 774 774 773 774 773 769 770 767 752 748 746 745 745 745 743 743 745 747 748 749 748 747 747
745 751 756 761 765 768 771 773 775 776 776 775 775 776 778 778 777 777 776 779 781 786 795 788 788 793 768 771 774 772 773 779 773 772 771 768 764 761 748 747 746 746 745 745 745 745 746 747 748 749 748 747 746 746
745 751 756 760 764 768 770 772 773 773 772 773 776 777 781 775 775 777 779 782 783 784 786 784 784 784 773 777 778 776 780 776 776 765 765 764 754 745 744 745 745 745 744 745 746 746 745 746 747 747 747 747 747 746
744 749 754 759 763 766 769 770 771 771 771 773 774 777 775 775 776 778 788 782 783 784 781 777 778 779 770 776 776 777 782 777 780 766 763 757 761 747 743 746 745 744 745 746 746 746 746 745 746 747 747 746 745 744
742 747 752 756 760 764 767 769 770 769 770 772 774 774 774 775 780 780 781 781 780 773 770 770 768 770 767 767 773 776 769 773 765 768 775 777 752 743 744 744 746 746 746 747 747 748 747 747 746 746 745 743 742 740
740 745 750 754 758 762 765 768 768 769 770 772 774 773 776 782 780 775 786 772 782 765 762 762 766 764 766 767 774 773 776 778 765 784 772 759 749 744 745 746 747 747 747 747 748 748 748 747 746 744 743 740 737 736
737 742 747 752 756 760 764 766 767 768 770 772 775 788 780 786 771 763 759 759 757 758 758 759 766 765 769 770 776 775 767 766 776 782 753 752 743 743 744 745 746 747 747 747 747 747 746 746 744 743 741 738 736 733
736 741 746 751 754 759 762 764 766 768 768 769 768 770 765 757 757 756 756 756 753 753 755 760 762 763 771 773 769 768 770 778 768 761 757 742 738 739 742 743 743 745 747 746 746 746 745 744 743 741 739 737 735 732
735 741 743 747 752 757 760 763 765 766 766 765 761 757 755 756 760 760 756 754 749 751 755 755 761 774 768 767 765 771 756 761 759 749 742 740 737 738 738 739 741 742 743 744 744 744 744 743 742 741 739 736 733 730
733 734 737 744 749 755 759 761 763 763 762 756 753 751 751 748 750 749 747 747 746 751 762 761 772 764 767 772 772 755 757 749 741 739 736 733 733 733 734 737 739 740 740 740 741 741 742 742 741 740 738 736 733 730
726 730 734 741 747 753 757 758 759 757 753 748 751 748 747 744 744 744 742 743 745 748 751 749 749 752 760 744 754 744 741 738 734 731 730 729 729 730 732 734 735 736 737 738 739 740 741 741 740 739 738 736 733 730
722 726 731 737 742 747 752 754 754 750 743 742 741 740 740 738 736 735 737 739 740 741 744 748 743 740 730 732 734 734 734 733 730 727 725 724 724 725 726 727 729 731 733 735 737 738 739 739 739 738 737 735 733 730
722 726 730 736 742 743 746 747 746 745 741 737 736 735 734 732 730 731 732 736 739 741 741 737 729 724 727 724 724 724 724 723 726 727 724 722 720 721 723 724 725 728 731 733 735 736 737 738 737 737 736 735 733 731
720 723 730 736 741 742 742 740 740 739 735 735 730 731 729 728 729 730 731 732 739 733 730 720 718 717 715 715 715 716 717 718 719 718 716 716 714 715 718 722 725 726 729 731 732 734 735 735 735 735 735 734 733 732
714 721 726 734 738 740 740 735 735 733 735 730 729 727 727 732 729 725 723 730 726 714 714 713 712 711 712 712 710 710 710 710 710 710 710 710 711 715 717 716 720 725 727 728 729 731 732 733 734 734 734 733 733 732
713 718 725 731 735 739 737 731 732 730 733 727 726 725 726 725 719 718 724 716 710 703 702 701 701 703 705 704 706 705 705 705 706 706 705 705 705 708 711 714 717 722 726 726 727 729 730 731 732 732 733 732 732 732
712 717 722 726 728 735 730 730 728 725 725 725 724 723 720 721 715 719 714 707 701 698 699 697 699 702 703 703 704 702 702 702 701 701 702 703 705 707 709 711 715 718 720 722 725 727 728 729 731 731 731 731 732 732
710 715 717 723 722 726 728 725 721 720 731 725 721 727 718 712 719 719 708 701 700 698 696 696 697 698 702 703 702 700 699 699 699 700 699 701 703 707 709 711 714 716 718 721 723 724 726 727 729 729 730 731 731 731
701 703 704 707 713 718 715 723 720 721 723 729 721 712 713 723 721 715 705 700 698 694 694 694 696 699 700 699 701 700 697 697 697 698 698 699 700 703 707 711 714 716 716 718 719 720 723 725 726 727 728 730 730 731
692 695 693 694 696 698 708 705 702 712 723 723 717 720 718 719 723 706 695 690 690 687 687 688 690 692 694 695 695 696 695 695 696 697 696 697 699 700 702 706 709 709 711 714 716 717 719 721 723 724 726 728 729 730
681 681 687 693 697 693 707 709 712 711 708 700 703 710 710 710 704 693 688 685 685 686 688 690 691 692 693 693 693 693 693 694 695 695 696 696 697 699 701 703 704 706 708 710 712 714 716 718 720 722 723 725 727 728
676 674 682 699 700 697 697 697 695 690 685 687 696 701 698 689 684 683 682 683 685 687 688 690 690 691 692 692 691 691 692 692 694 699 700 702 701 698 699 700 702 703 704 706 709 711 713 716 718 720 722 724 726 727
670 668 684 692 690 685 681 678 681 677 676 677 679 683 685 683 681 681 682 683 684 685 686 688 688 689 689 689 689 689 689 690 690 691 695 697 693 694 695 697 698 700 701 704 707 710 712 714 716 718 720 722 724 726
659 671 680 679 680 677 672 672 673 673 676 677 679 680 682 684 682 682 682 682 683 685 686 686 686 686 686 686 687 687 686 685 686 687 688 688 689 690 691 693 696 698 700 702 705 707 709 711 713 716 719 721 723 724
660 661 669 677 674 670 669 669 671 672 679 681 683 684 685 686 685 684 682 681 681 684 685 686 685 685 685 685 685 684 684 682 682 682 683 683 684 685 687 689 692 695 697 700 703 705 708 710 712 715 717 719 721 723
663 662 659 664 660 661 664 670 670 675 679 682 683 685 682 678 677 682 681 681 682 683 683 684 683 683 682 681 679 678 677 676 676 676 676 677 677 678 682 684 687 691 694 697 700 703 706 709 711 713 716 718 720 721
Wind_Speed
25 26 26 27 27 26 22 20 20 17 15 12 12 12 9 7 3 5 7 8 5 2 4 6 4 4 0 2 2 4 4 4 4 6 3 3 2 3 4 2 4 3 1 2 2 4 5 13 5 5 3 3 3 4
25 27 25 26 24 25 21 21 15 14 11 10 9 9 7 3 2 3 4 7 7 3 5 5 16 22 15 17 4 1 3 3 3 3 1 2 3 3 1 3 4 3 0 3 2 2 4 5 2 3 2 2 2 1
26 26 26 24 22 20 20 19 12 10 8 8 8 6 4 4 3 3 4 5 3 1 4 3 5 5 7 16 18 3 2 3 2 4 3 1 4 2 2 3 2 3 1 2 2 2 3 6 5 3 3 2 3 5
26 26 23 21 20 18 17 15 10 7 6 7 5 4 3 3 4 4 4 7 3 2 1 5 5 11 5 6 15 20 3 3 4 2 2 1 2 3 3 3 1 4 4 1 2 4 4 10 6 3 1 4 5 5
24 24 22 20 16 16 15 12 8 6 5 4 2 3 3 3 3 6 7 8 9 2 3 4 15 5 6 10 16 16 9 2 2 1 1 3 2 0 2 1 2 1 2 2 4 5 4 5 4 4 3 3 4 3
24 24 21 18 15 14 13 10 7 4 3 1 2 2 2 3 3 3 3 3 11 6 3 2 4 4 5 4 10 9 8 3 3 3 3 3 4 2 1 2 4 3 1 4 3 3 3 4 5 2 4 4 2 4
24 23 20 18 16 15 12 10 6 4 2 2 2 2 2 3 5 3 3 7 10 7 2 3 4 4 4 2 0 1 3 2 3 2 2 3 3 4 1 3 4 4 4 3 3 1 3 4 4 4 4 3 5 5
25 24 22 20 18 16 13 10 6 4 3 3 2 2 3 4 4 4 4 10 8 4 3 0 3 4 1 0 1 1 2 1 1 2 0 2 2 1 3 6 4 3 1 3 3 3 2 5 5 3 1 1 2 2
27 26 24 22 19 16 13 9 6 3 5 2 1 3 4 4 3 2 5 10 6 2 2 1 2 3 3 0 0 2 1 1 0 2 3 3 2 3 6 5 4 3 4 4 1 3 5 4 6 4 4 2 1 3
29 28 26 23 19 15 12 8 4 5 4 2 4 3 2 2 8 11 3 3 2 2 2 2 1 2 2 2 2 1 1 2 1 4 2 3 3 3 2 4 3 2 4 4 1 2 2 3 5 5 3 1 2 3
29 28 25 22 17 14 12 8 5 4 6 4 2 2 3 12 3 3 1 2 2 2 3 4 5 3 1 2 3 2 2 1 1 3 2 2 3 3 5 3 1 1 4 4 3 2 4 2 1 1 2 3 6 8
28 28 26 22 18 15 12 8 6 2 3 3 2 1 2 2 2 2 2 1 3 4 3 4 4 4 2 2 2 1 2 1 4 0 2 3 3 1 4 4 4 5 6 6 6 4 3 1 2 3 4 5 7 9
28 27 24 21 20 16 12 9 6 5 4 3 1 1 2 2 3 5 6 3 2 3 3 3 2 3 1 2 2 2 1 4 1 2 3 4 3 3 4 4 4 4 5 4 3 3 4 5 8 8 8 13 12 12
25 25 25 23 18 14 13 12 9 7 2 2 3 2 4 4 4 5 4 4 4 3 2 2 2 2 1 2 2 2 3 1 3 1 4 3 4 5 5 3 4 3 3 2 3 3 4 6 8 11 14 14 12 14
24 24 24 20 18 14 13 13 10 6 4 3 3 4 6 4 3 3 3 1 2 1 3 2 3 2 1 2 2 0 2 3 4 4 3 4 6 5 5 5 6 4 2 1 1 3 7 7 6 8 12 12 12 13
23 19 21 22 17 17 16 14 9 5 2 2 4 2 2 2 3 1 2 3 2 3 2 2 3 3 3 3 3 5 3 5 4 3 3 2 4 6 6 5 5 5 4 4 2 1 2 4 5 7 12 15 19 19
27 10 20 25 20 20 19 9 6 4 4 4 3 2 2 1 3 3 3 3 3 3 3 3 3 7 1 1 2 4 5 4 4 3 3 5 7 9 6 5 6 9 7 4 3 2 2 2 5 8 6 13 16 14
10 18 24 28 27 22 14 6 4 3 6 4 2 3 2 3 2 2 3 3 3 3 3 4 3 3 5 5 3 3 4 3 3 3 3 5 5 5 10 7 10 10 8 7 7 5 1 1 2 4 7 9 11 13
18 22 29 32 26 9 5 5 4 3 5 2 3 2 2 3 3 2 3 3 4 3 3 2 5 4 7 3 4 3 3 3 3 4 4 7 11 11 14 15 13 11 12 11 9 5 4 3 0 3 6 8 7 10
18 22 29 35 26 4 3 2 6 3 2 3 2 2 3 3 3 3 4 3 4 3 3 4 5 3 4 3 4 3 3 3 3 1 3 3 11 11 11 13 11 14 13 11 8 7 7 4 2 2 4 7 5 6
14 18 34 31 8 2 1 2 2 3 2 2 2 3 3 1 2 2 3 4 2 3 4 6 4 3 5 5 7 6 4 3 4 5 5 5 8 12 8 9 12 13 9 9 7 9 7 5 3 3 4 6 4 5
9 26 9 10 2 3 2 6 2 1 2 2 2 3 2 1 2 3 2 2 3 5 4 3 4 3 3 5 6 11 14 15 15 10 5 8 3 3 3 10 13 6 9 11 13 12 10 7 4 3 2 4 3 6
22 10 5 4 3 3 5 5 3 3 2 2 1 2 2 2 3 2 1 3 4 3 5 5 7 11 7 13 10 13 12 11 3 6 10 10 6 8 11 13 15 12 6 11 14 15 12 8 5 2 1 2 5 6
12 5 5 6 4 5 2 3 3 2 2 2 2 2 3 3 2 1 3 3 3 1 2 4 3 0 1 2 1 3 6 6 11 9 11 9 3 6 13 14 20 21 17 16 17 14 11 10 6 3 1 3 6 5
5 5 4 5 4 4 5 3 5 3 4 4 3 3 3 2 2 2 3 3 2 3 2 2 2 2 3 2 2 6 7 7 4 3 9 13 9 8 8 12 17 16 16 18 17 15 13 10 8 5 6 7 5 5
6 8 10 10 6 6 6 6 6 7 3 4 5 3 1 2 1 5 3 3 3 3 3 4 4 2 1 3 2 2 8 8 6 3 8 16 17 13 6 5 3 11 19 18 18 16 14 13 10 8 9 7 5 6
6 6 4 3 4 3 1 1 3 3 5 6 3 3 3 3 5 4 3 3 2 4 8 11 11 5 3 4 5 8 9 8 8 6 6 15 17 17 19 13 8 17 20 20 18 16 17 15 13 12 12 9 7 4
4 6 8 6 3 2 5 3 5 6 4 3 4 4 6 8 5 3 4 2 3 7 8 5 4 4 5 7 8 7 5 7 7 5 5 8 10 13 14 15 14 13 16 22 20 17 15 15 15 16 15 11 8 6
4 4 5 4 2 3 5 5 6 4 3 4 5 4 4 3 3 3 3 5 9 7 6 4 7 7 8 8 8 10 10 14 9 3 4 4 2 9 13 11 10 12 16 21 19 16 14 14 14 15 16 12 10 7
4 6 4 4 6 7 5 5 4 4 3 3 3 2 2 2 1 2 8 11 9 7 7 7 8 7 9 8 7 10 15 18 19 11 4 5 10 13 14 16 14 14 18 20 18 15 13 12 13 17 17 15 12 8
6 3 3 3 5 4 4 4 1 2 2 3 0 3 4 2 2 2 2 3 2 3 4 5 7 7 9 10 9 1 6 14 20 22 21 19 15 9 12 17 17 19 20 19 19 19 16 17 20 21 18 15 12 8
3 6 5 3 3 3 2 4 4 4 2 2 3 1 2 3 2 2 2 1 4 3 2 0 1 3 5 7 9 9 10 13 13 13 16 20 23 19 15 16 19 21 21 20 19 18 21 21 19 18 17 15 12 10
3 2 2 4 3 5 4 4 3 2 1 3 2 2 2 4 4 3 3 3 5 3 1 4 8 11 12 12 14 16 17 19 19 20 20 18 19 21 21 18 20 22 22 22 19 19 22 20 19 17 14 13 12 10
Wind_Direction
150 143 160 154 147 138 140 133 120 118 113 113 112 106 101 100 130 154 145 173 162 171 259 210 221 187 45 179 161 279 36 352 6 34 41 307 326 308 317 314 314 310 2 311 -0 26 355 343 354 51 233 287 9 14
155 154 163 149 143 136 144 118 121 117 119 118 107 94 98 134 174 143 135 154 210 213 239 241 261 263 241 217 145 300 185 195 188 60 357 315 330 344 285 322 327 22 54 355 40 202 262 261 172 270 207 351 318 355
160 161 163 141 145 148 130 117 120 123 122 108 93 99 131 175 172 172 174 190 196 281 308 329 232 210 292 230 217 132 279 190 177 183 175 249 279 121 325 284 307 313 18 76 132 288 296 316 350 53 99 205 50 55
163 167 152 149 160 138 119 121 133 126 110 92 93 122 173 184 181 209 206 171 187 122 228 281 311 303 273 204 207 214 221 124 103 115 153 196 239 201 255 255 244 223 346 25 302 276 272 258 244 199 147 75 85 47
169 165 159 161 152 134 131 133 142 121 102 96 132 174 196 198 210 239 234 220 210 123 204 278 308 284 277 218 215 221 209 145 125 69 131 238 244 162 247 314 277 266 224 159 229 235 200 266 110 117 113 84 77 65
175 172 167 159 155 147 144 151 141 137 127 149 205 213 220 209 228 201 21 201 203 195 89 325 299 289 316 217 209 195 188 142 141 161 225 260 256 164 262 255 254 271 280 197 266 305 192 111 112 150 128 132 118 86
179 177 171 168 166 163 162 162 160 170 204 258 249 254 215 221 218 195 187 135 143 185 86 325 315 279 301 155 55 119 129 176 155 194 216 224 280 172 208 237 232 264 266 300 344 156 113 175 192 155 124 117 102 84
182 181 179 177 175 175 175 174 177 203 276 292 254 243 213 202 222 244 183 156 145 109 85 166 275 338 355 257 302 28 133 67 239 221 296 214 303 146 255 238 237 285 248 4 360 33 134 114 112 138 147 211 58 15
184 185 183 182 182 182 181 184 192 243 308 293 231 167 150 201 169 144 150 186 193 112 169 222 193 246 347 31 288 7 79 338 232 219 241 135 218 224 231 188 203 246 233 196 350 102 130 165 197 207 223 237 309 286
188 188 186 186 186 186 186 182 205 295 293 204 168 184 345 186 138 128 86 41 34 323 69 242 189 274 103 19 311 24 41 228 277 243 111 201 247 251 193 165 160 253 161 142 150 289 257 249 220 222 247 319 281 271
189 188 188 185 185 187 190 202 267 294 147 169 131 179 104 142 161 42 77 200 148 248 209 227 191 203 262 138 220 174 223 245 333 268 177 261 282 242 168 160 235 178 110 77 73 36 31 23 147 155 299 293 289 283
189 187 185 183 182 187 183 203 256 173 129 139 152 152 131 80 55 135 221 230 198 228 207 183 202 193 248 125 109 266 226 50 248 353 65 284 260 215 153 137 93 97 108 90 72 75 46 94 212 230 249 272 282 281
186 188 184 183 178 179 194 200 220 185 137 125 89 79 83 291 175 194 203 233 228 209 207 184 187 163 101 71 61 88 93 237 18 42 231 231 255 183 166 142 116 89 94 91 71 38 2 333 314 280 283 288 279 276
185 183 181 179 189 198 200 195 195 176 154 147 154 250 177 223 228 200 191 188 224 171 193 157 101 144 193 77 142 121 243 2 321 309 237 253 214 190 189 187 148 166 129 67 10 -0 352 339 325 316 317 321 319 301
185 183 178 182 190 190 188 181 175 164 185 200 193 227 214 221 237 228 216 280 253 201 128 87 56 93 5 76 202 306 336 257 211 231 233 238 204 182 182 183 181 178 179 240 332 318 306 333 336 341 359 359 349 333
183 179 185 186 186 184 175 166 169 185 221 225 233 255 223 107 274 229 205 245 216 140 86 66 110 69 240 181 159 213 223 221 243 220 231 205 198 204 205 188 190 188 194 207 249 317 353 24 6 335 332 347 346 338
191 202 188 186 181 174 167 152 176 192 217 226 241 206 178 206 202 210 167 218 148 110 165 116 133 208 90 199 239 199 212 215 212 234 222 206 204 214 191 184 191 201 202 200 169 137 117 6 349 5 353 345 343 358
180 186 179 173 166 156 168 193 187 209 236 233 223 241 197 205 185 216 203 171 126 163 130 201 149 189 205 205 229 238 230 249 230 228 222 227 222 180 190 201 203 205 193 178 166 155 154 357 28 344 343 341 348 356
170 168 174 170 159 146 160 194 193 241 231 231 231 219 206 228 220 203 190 181 186 171 138 152 231 213 223 216 198 236 230 208 229 233 232 229 222 209 208 201 197 187 173 169 170 181 189 174 231 353 350 351 342 354
169 170 174 168 165 154 157 212 190 229 245 232 225 219 212 210 201 191 197 165 155 164 195 222 222 210 190 221 199 214 220 205 159 218 256 249 236 222 208 192 191 179 167 164 172 176 168 156 113 30 14 16 3 1
160 171 166 164 180 225 250 185 207 214 236 233 237 186 243 192 211 192 196 150 139 209 224 226 228 230 218 238 232 224 241 200 213 212 237 236 224 202 184 203 190 167 166 169 165 166 161 156 134 96 48 26 60 43
144 154 130 154 135 190 246 225 214 246 194 237 270 196 242 263 237 218 147 142 218 225 206 212 237 215 226 241 242 232 250 261 254 242 221 170 146 159 205 176 161 174 181 185 179 177 178 169 162 145 60 40 122 48
144 123 93 122 152 162 252 163 177 206 181 234 153 206 245 235 227 112 211 214 238 224 210 218 235 228 226 259 265 273 271 255 241 237 227 209 191 186 165 158 165 172 178 196 192 184 180 178 175 156 124 31 155 69
116 128 154 180 158 197 179 190 210 218 207 215 195 224 239 223 147 145 234 243 235 268 183 218 164 169 328 271 261 254 272 270 252 255 239 168 151 176 186 180 192 199 199 192 184 184 183 182 184 182 187 160 145 95
130 178 180 182 188 159 171 192 179 200 224 201 192 270 255 154 179 241 226 259 241 230 214 139 122 153 167 242 287 285 299 267 208 219 226 198 148 128 153 188 195 198 191 178 184 186 186 187 191 185 173 173 167 153
193 195 188 178 168 161 184 166 194 194 160 184 220 239 80 114 151 250 236 234 238 204 189 182 172 151 246 200 213 282 286 282 242 182 212 200 189 171 173 168 171 212 202 209 193 189 192 194 197 188 181 177 172 174
200 196 177 188 162 159 142 162 153 133 171 192 215 159 129 197 235 249 274 226 210 225 193 186 179 171 181 207 259 283 284 257 223 240 256 214 214 218 209 187 196 217 207 204 205 206 199 197 196 191 183 179 181 183
201 168 167 172 181 165 157 158 159 181 195 206 130 173 188 196 228 232 213 216 207 161 156 173 208 241 264 282 293 259 219 204 195 180 177 189 204 218 228 236 240 239 228 213 208 205 205 204 198 190 186 183 180 174
198 164 120 156 142 166 195 176 198 214 194 157 167 200 227 215 217 188 204 177 160 166 156 199 235 252 264 269 267 233 229 191 141 133 192 226 324 231 217 224 227 226 225 207 202 204 202 201 199 197 189 180 170 167
213 156 117 149 165 205 219 183 194 211 184 179 157 59 5 319 21 155 165 163 167 196 233 253 272 272 248 232 248 246 238 224 220 205 181 211 234 245 224 219 217 210 198 190 187 182 188 194 197 183 173 170 171 172
145 117 103 154 206 215 204 186 160 94 111 172 12 168 202 215 25 73 156 219 238 308 303 292 273 269 244 247 231 226 265 256 244 245 248 256 266 250 226 218 212 201 196 196 193 192 188 183 179 176 177 179 183 192
138 166 151 155 250 256 101 164 177 191 194 145 207 72 26 63 221 275 11 327 157 138 134 10 1 250 319 287 286 278 274 276 278 276 275 264 252 247 230 208 209 206 200 196 193 191 187 181 179 182 185 190 191 190
74 105 139 116 152 179 181 119 168 188 126 177 218 199 214 175 199 225 126 100 112 102 7 333 322 315 306 303 296 290 283 276 273 269 263 267 268 240 208 207 205 201 198 197 195 192 189 186 193 192 193 192 190 191